Stations météo

Publicité
La Rochelle/Ile de Re, France (7316): Température de l'air & dewpoint: 10.01.2019 17:00:00 - 16.01.2019 17:00:00 (CET)La Rochelle/Ile de Re, France (7316): Vitesse du vent & gusts: 10.01.2019 17:00:00 - 16.01.2019 17:00:00 (CET)La Rochelle/Ile de Re, France (7316): Direction du vent: 10.01.2019 17:00:00 - 16.01.2019 17:00:00 (CET)La Rochelle/Ile de Re, France (7316): reduced air pressure: 10.01.2019 17:00:00 - 16.01.2019 17:00:00 (CET)La Rochelle/Ile de Re, France (7316): visibility: 10.01.2019 17:00:00 - 16.01.2019 17:00:00 (CET)La Rochelle/Ile de Re, France (7316): Ensoleillement: 10.01.2019 17:00:00 - 16.01.2019 17:00:00 (CET)La Rochelle/Ile de Re, France (7316): Quantités de précipitations: 10.01.2019 17:00:00 - 16.01.2019 17:00:00 (CET)
Date & Time tt [°C] td [°C] ff [km/h] ff [knt] fx [km/h] fx [knt] dd ppp [hPa] vv [km] sd [min] rr [mm]
16.01.2019 17:00:00 - - - - - - - - - - -
16.01.2019 16:00:00 6,8 5,3 20 11 31 17 S 1013,1 14 0 0,0
16.01.2019 15:00:00 6,4 4,7 17 9 26 14 SSE 1013,3 15 0 0,0
16.01.2019 14:00:00 5,7 4,2 16 9 24 13 S 1013,8 13 0 0,0
16.01.2019 13:00:00 5,2 3,2 12 6 20 11 S 1014,4 16 0 0,0
16.01.2019 12:00:00 4,5 3,2 13 7 19 10 S 1015,1 13 0 0,0
16.01.2019 11:00:00 4,2 2,9 10 5 16 8 SSE 1015,5 12 19 0,0
16.01.2019 10:00:00 3,4 2,5 9 5 15 8 S 1015,6 10 49 0,0
16.01.2019 09:00:00 0,6 -0,1 8 4 13 7 SSE 1015,6 11 0 0,0
16.01.2019 08:00:00 0,6 -0,6 8 4 13 7 SSE 1015,6 15 0 0,0
16.01.2019 07:00:00 0,4 -0,9 9 5 13 7 SE 1015,8 18 0 0,0
16.01.2019 06:00:00 0,2 -1,2 9 5 10 5 ESE 1016,2 14 0 0,0
16.01.2019 05:00:00 0,7 -0,6 8 4 10 5 ESE 1016,9 14 0 0,0
16.01.2019 04:00:00 1,1 -0,4 8 4 11 6 ESE 1017,3 11 0 0,0
16.01.2019 03:00:00 1,4 -0,4 10 5 12 7 ESE 1017,9 13 0 0,0
16.01.2019 02:00:00 0,7 -1,1 10 5 13 7 E 1018,6 14 0 0,0
16.01.2019 01:00:00 1,6 -0,3 11 6 16 9 E 1019,1 15 0 0,0
16.01.2019 00:00:00 2,1 0,0 12 7 14 8 E 1019,8 13 0 0,0
15.01.2019 23:00:00 2,3 0,4 10 5 16 9 E 1020,5 14 0 0,0
15.01.2019 22:00:00 3,9 0,6 10 5 16 9 E 1021,1 20 0 0,0
15.01.2019 21:00:00 4,9 1,2 10 5 13 7 ENE 1021,2 25 0 0,0
15.01.2019 20:00:00 5,5 1,4 9 5 10 6 NE 1021,9 20 0 0,0
15.01.2019 19:00:00 6,3 1,4 8 5 9 5 ENE 1022,1 29 0 0,0
15.01.2019 18:00:00 7,2 2,1 5 3 10 5 NNE 1022,3 41 18 0,0
15.01.2019 17:00:00 8,7 2,3 7 4 10 5 NNW 1022,3 51 60 0,0
15.01.2019 16:00:00 9,5 1,9 8 5 14 8 NNW 1022,9 43 60 0,0
15.01.2019 15:00:00 10,0 1,6 9 5 16 8 NNW 1023,5 55 60 0,0
15.01.2019 14:00:00 10,8 1,6 6 3 18 10 SE 1024,1 47 60 0,0
15.01.2019 13:00:00 10,5 0,8 5 3 14 7 ESE 1025,1 20 60 0,4
15.01.2019 12:00:00 10,0 1,6 4 2 13 7 ESE 1025,9 46 60 0,0
15.01.2019 11:00:00 9,0 2,3 6 4 9 5 ESE 1026,3 37 60 0,0
15.01.2019 10:00:00 6,7 2,8 5 3 10 5 ESE 1026,4 20 21 0,0
15.01.2019 09:00:00 6,3 0,8 3 2 6 4 E 1026,4 55 0 0,0
15.01.2019 08:00:00 6,6 0,7 5 3 7 4 E 1026,2 60 0 0,0
15.01.2019 07:00:00 6,6 1,1 5 3 7 4 NE 1026,2 59 0 0,0
15.01.2019 06:00:00 6,6 0,7 4 2 8 5 NNE 1026,4 48 0 0,0
15.01.2019 05:00:00 6,3 0,8 7 4 9 5 NE 1026,5 59 0 0,0
15.01.2019 04:00:00 7,1 0,7 0 0 13 7 N 1026,8 55 0 0,0
15.01.2019 03:00:00 7,4 1,2 4 2 9 5 E 1027,0 58 0 0,0
15.01.2019 02:00:00 7,4 1,5 6 3 11 6 NE 1026,9 49 0 0,0
15.01.2019 01:00:00 7,9 2,4 5 3 16 8 NE 1027,2 48 0 0,0
15.01.2019 00:00:00 8,0 1,8 4 2 8 4 ENE 1027,3 48 0 0,0
14.01.2019 23:00:00 7,9 2,4 8 4 14 8 ENE 1027,1 46 0 0,0
14.01.2019 22:00:00 7,8 2,0 4 2 13 7 ENE 1026,9 44 0 0,0
14.01.2019 21:00:00 7,6 3,4 7 4 14 7 NE 1026,8 40 0 0,0
14.01.2019 20:00:00 8,2 3,6 10 5 14 8 N 1026,7 50 0 0,0
14.01.2019 19:00:00 8,5 3,7 6 4 9 5 NNE 1026,3 31 0 0,0
14.01.2019 18:00:00 8,6 3,4 4 2 16 8 N 1026,1 55 0 0,0
14.01.2019 17:00:00 9,4 2,3 13 7 20 11 NNE 1025,7 56 0 0,0
14.01.2019 16:00:00 9,7 3,2 13 7 26 14 NE 1025,2 50 0 0,0
14.01.2019 15:00:00 9,8 3,7 13 7 21 11 NE 1025,1 50 0 0,0
14.01.2019 14:00:00 9,6 4,8 14 7 28 15 NNE 1025,3 45 0 0,0
14.01.2019 13:00:00 10,0 6,3 9 5 16 8 N 1025,4 47 0 0,0
14.01.2019 12:00:00 9,7 8,3 9 5 21 11 N 1025,3 20 0 0,0
14.01.2019 11:00:00 9,6 8,4 13 7 22 12 NNW 1024,9 42 0 0,0
14.01.2019 10:00:00 9,5 8,6 14 8 31 17 NNW 1024,4 20 0 0,0
14.01.2019 09:00:00 9,5 6,8 24 13 33 18 N 1023,9 54 0 0,0
14.01.2019 08:00:00 9,0 8,5 17 9 25 14 NNW 1023,3 20 0 0,0
14.01.2019 07:00:00 8,6 8,3 15 8 26 14 NW 1023,2 12 0 0,0
14.01.2019 06:00:00 9,1 8,8 14 8 23 12 NNW 1022,9 13 0 0,0
14.01.2019 05:00:00 9,2 8,7 18 10 32 17 NNW 1023,0 9 0 0,0
14.01.2019 04:00:00 9,3 8,8 24 13 35 19 NW 1022,8 8 0 0,0
14.01.2019 03:00:00 9,6 8,2 27 15 39 21 NW 1023,0 20 0 0,0
14.01.2019 02:00:00 9,7 8,0 26 14 37 20 NW 1022,9 35 0 0,0
14.01.2019 01:00:00 9,2 7,6 26 14 39 21 NW 1023,4 42 0 0,0
14.01.2019 00:00:00 8,9 8,0 22 12 37 20 NW 1023,4 20 0 0,0
13.01.2019 23:00:00 9,3 8,8 24 13 32 17 NW 1023,8 14 0 0,0
13.01.2019 22:00:00 9,4 8,8 19 10 43 23 NW 1024,0 14 0 0,2
13.01.2019 21:00:00 9,7 9,1 27 14 41 22 NW 1024,2 17 0 0,0
13.01.2019 20:00:00 9,8 8,9 27 14 44 24 NW 1024,1 15 0 0,0
13.01.2019 19:00:00 10,2 8,1 32 17 44 24 NW 1024,0 46 0 0,0
13.01.2019 18:00:00 10,2 8,5 22 12 35 19 WNW 1023,8 44 15 0,0
13.01.2019 17:00:00 10,1 8,5 26 14 34 19 WNW 1024,2 42 6 0,0
13.01.2019 16:00:00 9,7 9,2 21 11 32 17 NW 1024,8 15 0 0,0
13.01.2019 15:00:00 9,6 9,5 23 12 35 19 NW 1025,3 7 0 0,0
13.01.2019 14:00:00 9,8 9,3 24 13 40 21 NW 1026,0 11 0 0,0
13.01.2019 13:00:00 10,1 9,8 22 12 32 17 NW 1026,5 7 0 0,0
13.01.2019 12:00:00 9,8 9,5 19 11 29 16 NW 1027,3 10 0 0,0
13.01.2019 11:00:00 9,5 9,4 17 9 30 16 NW 1027,6 8 3 0,0
13.01.2019 10:00:00 9,2 9,1 23 12 33 18 NW 1027,5 14 0 0,0
13.01.2019 09:00:00 9,0 8,5 21 12 32 17 NW 1027,6 11 0 0,0
13.01.2019 08:00:00 9,0 8,1 16 9 32 18 NNW 1027,6 16 0 0,0
13.01.2019 07:00:00 9,0 8,1 16 9 29 15 NNW 1027,2 19 0 0,0
13.01.2019 06:00:00 9,1 8,0 20 11 31 17 NNW 1027,5 20 0 0,0
13.01.2019 05:00:00 9,0 7,9 19 10 31 17 NW 1027,8 20 0 0,0
13.01.2019 04:00:00 9,3 8,4 20 11 27 15 NW 1028,0 41 0 0,0
13.01.2019 03:00:00 9,2 8,4 16 9 28 15 NW 1028,3 41 0 0,0
13.01.2019 02:00:00 9,2 8,6 18 10 29 15 NW 1028,7 40 0 0,0
13.01.2019 01:00:00 9,2 8,6 14 8 31 17 WNW 1029,0 46 0 0,0
13.01.2019 00:00:00 9,2 8,6 20 11 28 15 WNW 1029,4 49 0 0,0
12.01.2019 23:00:00 9,5 9,0 19 10 26 14 WNW 1029,9 46 0 0,0
12.01.2019 22:00:00 9,2 8,7 16 9 20 11 WNW 1030,2 54 0 0,0
12.01.2019 21:00:00 9,0 8,5 14 7 21 11 W 1030,1 40 0 0,0
12.01.2019 20:00:00 8,6 8,2 13 7 23 12 W 1030,8 15 0 0,2
12.01.2019 19:00:00 8,5 6,6 11 6 23 12 WNW 1031,1 46 0 0,0
12.01.2019 18:00:00 8,1 6,9 10 5 16 9 WSW 1031,5 11 0 0,0
12.01.2019 17:00:00 7,5 6,3 9 5 15 8 W 1031,6 11 11 0,0
12.01.2019 16:00:00 7,4 6,3 8 4 13 7 WSW 1031,5 10 10 0,0
12.01.2019 15:00:00 6,7 6,3 6 4 10 6 WSW 1031,5 9 27 0,0
12.01.2019 14:00:00 6,2 6,2 6 3 17 9 NNW 1032,6 6 0 0,0
12.01.2019 13:00:00 4,7 4,7 8 5 14 7 N 1033,4 0,2 0 0,2
12.01.2019 12:00:00 4,6 4,6 7 4 16 8 N 1033,9 0,2 0 0,0
12.01.2019 11:00:00 4,2 4,2 9 5 18 10 N 1033,9 0,1 0 0,0
12.01.2019 10:00:00 4,4 4,3 12 7 18 10 N 1033,8 0,1 0 0,0
12.01.2019 09:00:00 5,1 5,0 10 5 15 8 NNE 1033,1 0,1 0 0,0
12.01.2019 08:00:00 5,5 5,4 5 3 9 5 NE 1032,7 1,9 0 0,0
12.01.2019 07:00:00 5,2 4,9 0 0 6 3 N 1032,3 1,1 0 0,0
12.01.2019 06:00:00 5,7 5,4 5 3 7 4 NE 1032,4 2,3 0 0,0
12.01.2019 05:00:00 5,9 5,6 2 1 5 3 NNE 1032,8 3,3 0 0,0
12.01.2019 04:00:00 5,8 5,4 0 0 5 3 N 1032,9 1,7 0 0,0
12.01.2019 03:00:00 5,9 5,3 0 0 6 3 N 1032,8 3,0 0 0,0
12.01.2019 02:00:00 6,5 6,1 3 2 7 4 N 1032,7 6 0 0,0
12.01.2019 01:00:00 7,0 6,6 0 0 8 4 N 1032,6 7 0 0,0
12.01.2019 00:00:00 6,8 6,2 5 3 7 4 NW 1032,9 4,8 0 0,0
11.01.2019 23:00:00 7,2 6,6 0 0 4 2 N 1032,8 8 0 0,0
11.01.2019 22:00:00 7,1 6,7 4 2 8 4 NNW 1032,7 7 0 0,2
11.01.2019 21:00:00 6,7 6,1 5 3 8 4 N 1032,4 5 0 0,0
11.01.2019 20:00:00 6,7 6,0 4 2 12 7 N 1032,5 5 0 0,0
11.01.2019 19:00:00 7,1 5,9 9 5 16 9 N 1032,3 12 0 0,0
11.01.2019 18:00:00 7,3 6,2 7 4 13 7 NNW 1031,9 20 0 0,0
11.01.2019 17:00:00 7,5 5,6 8 4 14 8 WNW 1031,7 30 0 0,0
11.01.2019 16:00:00 7,5 5,3 9 5 14 7 NNW 1031,7 23 0 0,0
11.01.2019 15:00:00 7,4 4,9 9 5 13 7 NW 1031,9 24 0 0,0
11.01.2019 14:00:00 6,8 4,3 5 3 10 5 NNW 1031,8 19 0 0,0
11.01.2019 13:00:00 6,4 3,5 7 4 10 5 N 1032,5 20 0 0,0
11.01.2019 12:00:00 6,1 3,3 6 3 9 5 N 1032,7 23 34 0,0
11.01.2019 11:00:00 4,8 3,3 6 4 12 6 N 1032,6 15 0 0,0
11.01.2019 10:00:00 3,8 3,2 3 2 7 4 N 1032,1 8 14 0,0
11.01.2019 09:00:00 2,7 2,3 5 3 8 5 NNE 1031,6 9 0 0,0
11.01.2019 08:00:00 2,6 2,2 5 3 7 4 N 1031,0 10 0 0,0
11.01.2019 07:00:00 2,3 1,9 6 3 7 4 N 1030,7 9 0 0,0
11.01.2019 06:00:00 1,3 0,9 5 3 8 5 NE 1030,8 6 0 0,0
11.01.2019 05:00:00 1,1 0,5 5 3 10 5 NE 1031,1 4,6 0 0,0
11.01.2019 04:00:00 1,7 1,0 8 5 12 6 NNE 1031,2 8 0 0,0
11.01.2019 03:00:00 1,9 1,2 8 5 12 6 NE 1030,9 10 0 0,0
11.01.2019 02:00:00 2,6 1,4 9 5 18 10 NE 1030,6 12 0 0,0
11.01.2019 01:00:00 3,0 1,7 11 6 18 10 NE 1030,8 15 0 0,0
11.01.2019 00:00:00 3,5 1,7 13 7 17 9 NNE 1030,7 16 0 0,0
10.01.2019 23:00:00 3,2 1,4 12 7 15 8 NNE 1030,8 18 0 0,0
10.01.2019 22:00:00 2,8 1,2 10 6 13 7 NNE 1030,5 18 0 0,0
10.01.2019 21:00:00 3,5 1,2 9 5 16 9 NNE 1030,2 20 0 0,0
10.01.2019 20:00:00 4,7 1,2 13 7 23 12 NE 1029,9 33 0 0,0
10.01.2019 19:00:00 4,9 0,8 15 8 25 14 NNE 1029,5 34 0 0,0
10.01.2019 18:00:00 5,0 0,9 16 8 27 14 NNE 1029,4 38 12 0,0
10.01.2019 17:00:00 5,8 1,1 17 9 29 16 NNE 1029,3 40 57 0,0

tt = Température de l'air
td = dewpoint
ff = Vitesse du vent
fx = gusts
dd = Direction du vent
ppp = reduced air pressure
vv = visibility
sd = Ensoleillement
rr = Quantités de précipitations

stations d'obs. à proximité